METEOR 2-18

Satellite information

Favourite Embed

Satellite Type and Status

PAYLOADIN ORBIT

Key statistics

Satellite METEOR 2-18 at a glance.

Uptime

13217

Days in orbit

Revolutions

≈ 13.9

Per day

Orbit

LEO

Low Earth Orbit

Inclination

82.5

Latest

Satellite identification and parameters

Extended collection of information and parameters for METEOR 2-18.

Object identification

Identified? True

Debris? False

Object name: METEOR 2-18

International designator: 1989-018A

Object number (NORAD): 19851

Object ID (CCSDS): 19851

Country: COMMONWEALTH OF INDEPENDENT STATES (CIS)

Current information (Y/N): Y

RCS size: LARGE

Orbital parameters

Period: 103.898 minutes

Inclination: 82.5181 deg

SMA: 7320.913 km

Apoapsis: 951.54 km

Periapsis: 934.015 km

RAAN: 134.633 deg

Eccentricy: 0.0011969

Argument of periapsis: 190.645 deg

Mean anomaly: 342.0417 deg

Mean motion: 13.85973518 rev/day

Mean motion (dot): 0.00000125 rev/day2

B* drag term: 0.000095384 1/REarth

Two-line elements (TLE)

Creation date: May 6, 2025, 3:54 a.m.

Reference frame: TEME

Reference center: EARTH

Epoch: May 5, 2025, 6:53 p.m. UTC

TLE line 0: 0 METEOR 2-18

TLE line 1: 1 19851U 89018A 25125.78699624 .00000125 00000-0 95384-4 0 9997

TLE line 2: 2 19851 82.5181 134.6330 0011969 190.6450 342.0417 13.85973518829383

Live tracking on map

Real-time ground track for satellite METEOR 2-18.

In-orbit conjunctions

A list of the most updated potential collisions computed for object METEOR 2-18.

Target Orbit TCA Probability of collision Miss distance Type
THOR ABLESTAR DEB LEO 2025-03-01 13:37:58 0.0002168912 473.0 (m) DEBRIS
NOAA 16 DEB SSO 2025-02-22 18:15:58 0.0014952 18.0 (m) DEBRIS
FENGYUN 1C DEB SSO 2025-02-01 09:18:52 0.0001171 632.0 (m) DEBRIS
FENGYUN 1C DEB SSO 2025-01-20 17:32:27 0.0003719607 264.0 (m) DEBRIS

Associated space launch

Second generation soviet meteorological satellite

METEOR 2-18 was lifted into orbit during the mission ‘Tsiklon-3 | Meteor-2 18’, on board a Tsiklon-3 space rocket.

The launch took place on Feb. 28, 1989, 4:05 a.m. from 32/2.

For more information about the launch, click the button.

Launch to space Tsiklon-3 | Meteor-2 18
Tsiklon-3 | Meteor-2 18

Agency: N/A

Status: Launch Successful

Launch date: Feb. 28, 1989, 4:05 a.m. UTC

Rocket: Tsiklon-3

Launch pad: 32/2

Location: Plesetsk Cosmodrome, Russian Federation

...

Latest news about this satellite

There are no fresh news available about this satellite. Check back as we update our databases every day.


Newsletter sign-up

Weekly statistics, charts and insights to help you stay on top of the space industry.